DELTA 1 DEB, 18472

Orbit data source: Space-Track

DELTA 1 DEB, 18472 is space debris in SSO originally from a launch on Tue, 06 Nov 1973 UTC launched from the Air Force Western Test Range (AFWTR). Debris objects in space refer to the collection of defunct objects orbiting the Earth. Examples of debris include non-operational satellites, rocket bodies, and fragments generated from explosions, collisions, or faulty payload assembly.

Loading next visibility...
Identifier
18472, 1973-086GV
Orbit
SSO
Country
Flag of USUS
Related business
Manufacturer
Unknown
Mission
Spacecraft
Bus & Motor
Unknown
Mass
Unknown
Launch date (UTC)
1973-11-06 (53 years ago)
Launch vehicle
Unknown
Launch site
Air Force Western Test Range (AFWTR)
Object type
Payload
Rocket body
Debris
Shape & HBR
Unknown shape, 0.1 m
Radar Cross Section
Medium (>0.1 m² and <1 m²)

Expand to show TLE details & history
Last TLE update: 11 hours ago

TLE from 11 hours ago
0 DELTA 1 DEB
1 18472U 73086GV  26264.09684895 -.00000048  00000-0 -18228-4 0  9994
2 18472 101.0248 310.3393 0014833 195.1347 192.2776 12.77558998936622
Epoch: 2026-09-21T02:19Z
TLE epoch observation values (Epoch: 2026-09-21T02:19:27.749Z)
Latitude
26.86658°
Longitude
-90.14399°
Altitude
1,365.545 km
Speed
7.173 km/s
True Right ascension
20h 18m 48s
True Declination
26° 44' 21"
Sunlit
Object was in daylight at epoch
Visualization orbit readout
Latitude
Unknown
Longitude
Unknown
Altitude
Unknown
Speed
Unknown
Apparent Right ascension
Unknown
Apparent Declination
Unknown
Sunlit
N/A
Visualization observer readout
Local Sidereal Time
06:01:09
Azimuth
Unknown
Elevation
Unknown
Doppler factor
Unknown
Orbital elements
Apogee altitude
1,360.23 km
Perigee altitude
1,337.308 km
Semi-major axis
7,726.906 km
Eccentricity
0.00148
Inclination
101.0248°
RAAN
310.3393°
Arg. of periapsis
195.1347°
True anomaly
192.24152°
Mean anomaly
192.2776°
Eccentric anomaly
192.25955°
Mean motion
3.19547 °/min
Orbital period
112.66 mins
BSTAR
-0.000018228
Loading maneuver chart data...
Computing Atmospheric mass density...
Loading historical data...
Loading historical data...
Loading historical data...
Loading historical data...
Loading historical data...
Loading historical data...
Loading historical data...

Documentation

Showing up to 5 results
|